Home   Weather   Camaçari   Past weeks
Flag for Brazil

Past Weather in Camaçari, Bahia, Brazil — Yesterday and Last 2 Weeks

Now
73 °F

Clear.


Feels Like: 73 °F
Forecast: 84 / 65 °F
Wind: 2 mph from North

Location: Salvador Aeroporto

Current Time: Jul 16, 2019 at 10:19:25 pm

Latest Report: Jul 16, 2019 at 9:00 pm


Visibility: 10 mi

Pressure: 30.01 "Hg

Humidity: 83%

Dew Point: 68 °F

Location of CamaçariLocation

Past Weather in Camaçari — Graph

°F

Camaçari Temperature Yesterday

Maximum temperature yesterday: 81 °F (at 9:00 am)
Minimum temperature yesterday: 73 °F (at 8:00 pm)
Average temperature yesterday: 77 °F

High & Low Weather Summary for the Past Weeks

 TemperatureHumidityPressure
High86 °F (Jul 6, 1:00 pm)100% (Jul 2, 4:00 am)30.18 "Hg (Jul 2, 4:00 am)
Low68 °F (Jul 16, 5:00 am)48% (Jul 16, 11:00 am)29.86 "Hg (Jul 2, 4:00 pm)
Average78 °F79%30.02 "Hg
* Reported Jul 1 9:00 pm — Jul 16 9:00 pm, Camaçari. Weather by CustomWeather, © 2019

Note: Actual official high and low records may vary slightly from our data, if they occured in-between our weather recording intervals... More about our weather records

Advertising

Camaçari Weather History for the Previous 24 Hours

Scroll right to see more
 ConditionsComfort  
Time TempWeatherWind HumidityBarometerVisibility
9:00 pm
Tue, Jul 16
73 °FClear.2 mph83%30.01 "Hg10 mi
8:00 pm77 °FClear.7 mph74%30.01 "Hg10 mi
7:00 pm77 °FClear.6 mph74%30.01 "Hg10 mi
6:00 pm77 °FClear.8 mph74%29.98 "Hg10 mi
5:00 pm79 °FSunny.8 mph70%29.98 "Hg10 mi
4:00 pm79 °FSunny.8 mph74%29.98 "Hg10 mi
3:00 pm81 °FPassing clouds.8 mph66%29.98 "HgN/A
2:00 pm81 °FPassing clouds.8 mph62%29.98 "HgN/A
1:00 pm82 °FPassing clouds.7 mph55%30.01 "HgN/A
12:00 pm82 °FPassing clouds.7 mph51%30.04 "HgN/A
11:00 am82 °FPassing clouds.6 mph48%30.04 "HgN/A
10:00 am82 °FPassing clouds.6 mph55%30.07 "HgN/A
9:00 am79 °FPassing clouds.2 mph74%30.07 "HgN/A
8:00 am75 °FPassing clouds.2 mph89%30.04 "Hg5 mi
7:00 am72 °FPassing clouds.2 mph94%30.04 "Hg5 mi
6:00 am68 °FScattered clouds.2 mph94%30.01 "Hg5 mi
5:00 am68 °FClear.2 mph94%30.01 "Hg10 mi
4:00 am70 °FPassing clouds.2 mph94%29.98 "HgN/A
3:00 am70 °FPassing clouds.2 mph94%29.98 "HgN/A
2:00 am70 °FClear.No wind94%29.98 "Hg10 mi
1:00 am70 °FPassing clouds.No wind94%30.01 "HgN/A
12:00 am72 °FPassing clouds.2 mph88%30.01 "HgN/A
11:00 pm
Mon, Jul 15
73 °FPassing clouds.2 mph89%30.04 "HgN/A
10:00 pm73 °FPassing clouds.No wind94%30.04 "HgN/A
Weather by CustomWeather, © 2019

See weather overview